Regional Weather Roundup
Issued by NWS Sterling, VA

Home | Current Version | Previous Version | Text Only | Print | Product List | Glossary Off
Versions: 1 2 3 4 5 6 7 8 9 10 11 12 13 14 15 16 17 18 19 20 21 22 23 24 25 26 27 28 29 30 31 32 33 34 35 36 37 38 39 40 41 42 43 44 45 46 47 48 49 50

000
ASUS41 KLWX 290510
RWRLWX

REGIONAL WEATHER ROUNDUP
NATIONAL WEATHER SERVICE BALTIMORE MD/WASHINGTON DC
100 AM EDT TUE JUL 29 2014

Note: "FAIR" indicates few or no clouds below 12,000 feet
with no significant weather and/or obstructions to visibility.
 TC=TEMPERATURE CELSIUS

 * =Non NWS site. Station does not report precipitation (e.g. rain,
    snow, etc.), thunder, or fog.

DCZ001-MDZ009-015-VAZ040>042-051-053>054-290600-
WASHINGTON METRO
  /KDAA//-FT BELVOIR

CITY           SKY/WX    TMP DP  RH WIND       PRES   REMARKS
WASHINGTON NAT CLEAR     71  57  61 NW10G20   29.84R
DULLES         CLEAR     66  56  70 NW12      29.85R
ANDREWS AFB    CLEAR     69  59  70 NW14      29.83R
QUANTICO       CLEAR     69  57  65 NW10      29.85R
COLLEGE PARK*  CLEAR     70  59  68 NW8       29.82S
LEESBURG*      CLEAR     66  61  82 NW12      29.87R
GAITHERSBURG*  CLEAR     64  57  77 NW10      29.87F

$$

MDZ006>007-011-014-290600-
BALTIMORE METRO

CITY           SKY/WX    TMP DP  RH WIND       PRES   REMARKS
BWI AIRPORT    PTCLDY    66  60  81 W6        29.82R
MD SCIENCE CTR   N/A     69  59  70 MISG      29.82R
MARTIN STATE   PTCLDY    68  61  77 W8        29.82R
ANNAPOLIS      PTCLDY    70  61  73 W9        29.81R
FORT MEADE*    CLEAR     63  59  88 NW6       29.84S

$$

MDZ012-015-019>023-290600-
MARYLAND EASTERN SHORE

CITY           SKY/WX    TMP DP  RH WIND       PRES   REMARKS
OCEAN CITY     CLEAR     70  60  70 NW3       29.79R
SALISBURY      NOT AVBL
BAY BRIDGE AP*   N/A     70  59  68 NW13      29.81R
CAMBRIDGE*     CLEAR     72  59  64 NW13      29.80R
EASTON*        PTCLDY    72  63  73 N7        29.84R

$$

MDZ017>025-290600-
SOUTHERN MARYLAND

CITY           SKY/WX    TMP DP  RH WIND       PRES   REMARKS
PATUXENT RIVER CLEAR     70  59  68 W14       29.81R
ST INIGOES     CLEAR     71  58  63 NW8       29.81R
LEONARDTOWN*   CLEAR     68  57  68 W3        29.84R

$$

MDZ003>005-290600-
NORTH CENTRAL MARYLAND

CITY           SKY/WX    TMP DP  RH WIND       PRES   REMARKS
FREDERICK*     PTCLDY    64  61  88 W5        29.87S
HAGERSTOWN APT PTCLDY    64  56  75 NW9       29.86S
WESTMINSTER*   PTCLDY    66  61  82 NW9       29.84F

$$

MDZ501>502-290600-
WESTERN MARYLAND

CITY           SKY/WX    TMP DP  RH WIND       PRES   REMARKS
OAKLAND*       CLOUDY    50 N/A N/A NW5       29.96S FOG
CUMBERLAND*    CLEAR     61  52  72 N5        29.95S

$$

VAZ025>031-290600-
SHENANDOAH VALLEY

CITY           SKY/WX    TMP DP  RH WIND       PRES   REMARKS
WINCHESTER*    CLEAR     63  54  72 NW8       29.88S
STAUNTON*      CLEAR     58  53  81 CALM      29.93F

$$

WVZ021-048>050-054>055-290600-
EASTERN WEST VIRGINIA PANHANDLE

CITY           SKY/WX    TMP DP  RH WIND       PRES   REMARKS
MARTINSBURG    CLEAR     66  53  63 NW10      29.87F
PETERSBURG*    CLEAR     56  50  80 CALM      29.95S

$$

VAZ036>039-050-290600-
CENTRAL FOOTHILLS

CITY           SKY/WX    TMP DP  RH WIND       PRES   REMARKS
CHARLOTTESVILL CLEAR     64  55  72 NW3       29.89R
ORANGE*        CLEAR     64  54  68 CALM      29.89R

$$

VAZ055>057-290600-
NORTH AND CENTRAL PIEDMONT

CITY           SKY/WX    TMP DP  RH WIND       PRES   REMARKS
FREDERICKSBRG* CLEAR     69  58  68 NW6       29.84S
STAFFORD*      CLEAR     64  58  83 NW6       29.89S

$$

NCZ024-NYZ072-PAZ021-071-VAZ022-071-290600-
OTHER REGIONAL OBSERVATIONS

CITY           SKY/WX    TMP DP  RH WIND       PRES   REMARKS
NEW YORK CITY  PTCLDY    68  55  63 VRB6      29.74R
PHILADELPHIA   PTCLDY    69  57  65 NW16G23   29.78R
PITTSBURGH     PTCLDY    55  52  89 W3        29.96S
ROANOKE        CLEAR     65  54  67 W3        29.95S
RICHMOND       CLEAR     72  56  57 NW12      29.84R
RALEIGH        PTCLDY    70  57  63 CALM      29.88S

$$

ANZ530>537-290600-
MARINE OBSERVATIONS

STATION/POSITION TIME  TEMP    WIND        PRES
                       AIR SEA DIR/SP/G
                 (UTC) (F)     (DEG/KT/KT) (MB)
THOMAS PT LIGHT  0500   70 78  320/ 13/ 16 1009.9R
BALT KEY BRIDGE  0500   76     290/ 16/ 19 1009.3S
COVE POINT       0500   72     330/ 13/ 20 1009.1F
LEWISETTA        0500   73 79  320/ 12/ 14 1009.5R
SOLOMONS ISLAND  0500      80                N/A
PINEY POINT      0500          340/ 22/ 23   N/A

$$




USA.gov is the U.S. government's official web portal to all federal, state and local government web resources and services.